Norfolk International Airport Airport (ORF)

 

Airport Diagram
Current Weather/Forecast (VFR Conditions)
METAR KORF 251751Z 01011KT 10SM OVC075 26/18 A3011 RMK AO2 SLP195 T02560183 10261 20228 58007
TAF KORF 251748Z 2518/2618 02015G23KT P6SM BKN090 FM252300 04014G22KT P6SM SCT050 BKN090 FM260400 02012G20KT P6SM SCT015 BKN050 FM261000 03012G20KT P6SM VCSH SCT015 BKN040 FM261500 04012G20KT P6SM BKN040

All Charts
General
Chart Name Download
AIRPORT DIAGRAM
TAKEOFF MINIMUMS
ALTERNATE MINIMUMS

Departures
Chart Name Download
KISRR THREE

Arrivals
Chart Name Download
DRONE TWO
DRONE TWO, CONT.1
TERKS TWO

Approaches
Chart Name Download
ILS OR LOC RWY 05
ILS OR LOC RWY 23
RNAV (RNP) Y RWY 05
RNAV (RNP) Y RWY 23
RNAV (GPS) RWY 14
RNAV (GPS) RWY 32
RNAV (GPS) Z RWY 05
RNAV (GPS) Z RWY 23
VOR/DME RWY 32
VOR RWY 14
RIVER VISUAL RWY 05


Inbound Traffic (Arrivals)

No inbound traffic.


Outbound Traffic (Departures)

No outbound traffic.